Wind_Speed
12 12 12 12 13 12 12 12 12 13 13 14 15 16 16 16 16 15 15 15 16 16 16 17 17 18 18 20 21 22 24 24 24 19 12 21 24 15 12 11 7 3 6 11 11 7 4 4 6 5 3 1 2 2 3 4 3 2 3 4 5 5 5 5 3 2 2 7 8 9 6 3 4 4 3 6 10 10 8 7 10 13 12 15 22 31 33 34
12 12 13 13 13 13 13 13 13 13 13 14 15 16 16 16 15 15 15 15 15 16 16 17 17 18 18 20 21 22 24 24 21 18 24 29 21 17 18 16 12 7 8 11 12 10 5 3 6 5 3 1 2 2 2 3 3 4 3 3 5 5 6 5 3 4 5 8 10 12 9 2 1 5 1 5 5 11 12 6 12 17 15 18 24 28 29 32
12 12 13 13 13 13 13 13 13 14 14 15 16 16 16 16 15 14 15 15 15 16 16 16 17 18 19 20 20 22 23 19 11 14 28 26 22 23 19 18 17 12 13 13 10 11 9 3 4 5 3 1 3 2 3 3 3 4 4 4 6 6 8 6 5 6 6 8 11 12 10 5 3 4 2 6 6 10 13 7 10 15 15 17 17 21 26 28
12 13 13 13 13 13 14 14 14 14 15 15 16 16 16 16 15 14 14 14 15 15 16 16 17 18 19 20 19 21 17 9 4 10 19 16 21 26 21 20 19 15 16 15 10 10 10 4 2 2 2 2 3 2 4 4 3 3 4 5 6 5 7 7 5 6 6 6 8 10 8 8 6 4 3 8 7 4 8 11 14 18 19 19 16 18 22 24
12 13 13 13 13 14 14 14 15 15 15 16 16 16 17 16 15 15 14 14 14 15 16 16 17 18 19 20 19 18 9 2 3 4 8 8 13 22 25 22 18 17 17 15 10 8 8 4 1 0 2 3 3 1 4 6 4 3 4 7 7 6 7 6 4 5 6 6 5 6 7 7 6 5 4 7 7 4 6 8 16 21 20 20 19 17 19 20
13 13 12 13 13 14 14 15 16 16 16 16 16 16 17 16 15 15 14 15 15 15 16 16 17 18 19 21 17 9 2 1 4 6 10 8 3 13 25 24 19 19 18 15 10 5 4 3 3 2 2 4 5 4 6 5 5 4 5 6 8 9 8 6 4 5 5 7 7 4 4 5 5 6 4 4 3 4 6 7 12 16 17 20 19 18 19 18
13 13 13 13 13 14 15 15 16 17 17 17 16 16 17 17 15 15 15 15 15 15 16 16 17 17 19 20 11 1 1 6 8 5 10 10 10 3 20 25 22 19 19 15 9 5 4 5 4 4 3 4 5 7 7 5 5 6 7 7 8 10 9 8 7 7 6 8 11 5 4 6 6 4 3 6 3 7 14 12 13 14 16 18 16 16 19 19
13 13 13 14 14 15 15 16 16 17 17 17 17 17 17 17 16 15 15 15 15 15 15 15 16 16 18 17 6 0 1 12 16 4 8 9 8 1 13 22 23 19 18 17 12 8 4 5 6 4 3 6 5 6 7 4 4 6 8 9 8 8 8 9 8 7 6 7 8 3 6 8 1 3 2 6 7 13 16 14 15 15 15 15 14 16 18 18
13 13 14 15 15 16 16 16 17 17 17 17 18 18 17 18 17 16 14 15 15 15 15 15 15 15 15 11 3 2 7 22 25 11 9 10 6 4 11 18 22 21 17 17 14 8 4 5 7 6 5 6 6 6 5 4 4 6 8 9 9 10 8 8 7 7 6 5 4 1 6 10 1 5 4 5 10 14 16 16 15 14 15 13 12 15 16 16
14 13 14 15 15 16 16 17 17 17 18 18 18 18 18 18 18 16 15 15 15 15 15 14 14 14 12 7 1 3 11 20 20 14 10 7 5 6 13 16 21 23 17 14 13 10 7 8 6 4 4 5 5 6 4 5 5 5 6 8 11 12 10 7 7 7 5 4 5 5 5 9 3 6 4 3 10 15 17 15 13 13 15 13 13 14 14 14
13 13 14 15 15 16 17 17 18 17 18 18 18 18 18 18 18 17 15 16 15 15 15 14 14 12 9 5 2 6 9 6 6 9 5 3 7 7 10 12 16 23 19 12 13 16 16 14 6 1 2 3 4 6 4 4 4 6 5 6 9 10 8 6 6 6 3 3 7 7 5 5 5 4 8 8 9 15 18 14 13 13 12 13 14 13 11 11
13 13 14 15 15 16 17 18 18 18 19 19 19 19 19 19 18 17 16 16 16 15 14 14 12 10 9 6 8 18 14 6 7 9 10 13 17 17 15 15 14 21 20 11 13 20 23 19 6 1 4 2 3 4 4 5 4 6 6 5 9 8 7 8 6 5 3 3 6 6 2 3 5 1 10 13 10 13 17 14 13 12 10 12 14 12 9 10
13 14 13 14 15 16 17 18 18 19 20 20 20 20 19 19 19 18 17 17 17 16 14 13 11 10 8 4 15 29 24 19 22 23 26 25 23 23 20 18 19 22 22 16 16 21 23 20 8 4 5 2 4 4 5 7 3 5 4 3 5 5 5 8 6 5 5 4 6 6 1 5 6 6 9 12 11 13 15 13 12 11 10 12 12 10 9 10
14 13 14 14 15 16 17 17 18 20 20 20 19 19 20 20 20 19 18 18 17 15 14 12 9 9 6 8 21 30 25 26 29 30 31 27 22 23 23 19 19 24 24 19 18 18 20 19 10 5 5 3 5 6 8 7 3 4 4 1 2 1 5 7 4 7 5 4 6 7 3 6 9 8 8 11 12 15 14 12 12 11 10 11 10 10 9 8
14 13 14 15 15 16 17 17 19 20 20 20 20 20 20 21 22 21 19 18 16 14 12 11 9 7 4 10 20 20 15 16 22 29 30 27 22 17 20 18 15 23 28 22 19 16 17 16 7 3 4 4 5 4 6 5 3 2 2 4 2 3 4 8 4 6 6 4 6 8 3 5 9 8 9 12 13 15 14 11 11 12 12 11 9 9 9 7
16 14 13 14 15 16 17 17 18 20 20 21 21 22 22 22 23 22 20 18 16 13 9 8 7 7 2 6 12 13 11 10 17 25 24 22 22 19 22 19 15 19 24 23 21 17 14 10 4 4 4 4 4 2 3 4 4 2 2 4 3 3 3 5 5 4 7 5 3 7 4 4 7 5 11 13 13 15 14 11 12 13 12 11 9 9 9 7
16 14 13 14 15 16 17 17 18 20 21 22 23 24 24 24 24 21 18 16 16 12 8 7 4 6 6 9 10 9 9 14 18 20 17 17 20 23 22 13 11 13 16 17 18 14 8 5 3 4 4 4 3 4 3 5 4 3 0 3 4 3 4 2 5 4 5 5 3 5 5 7 8 3 11 13 13 15 15 13 12 12 11 10 10 9 9 8
16 15 14 14 15 16 17 17 19 20 21 22 23 24 26 26 23 19 16 13 8 5 7 9 4 2 6 8 8 7 6 9 14 15 17 16 16 21 20 10 7 6 7 9 9 7 4 2 3 3 3 5 5 6 5 6 5 4 2 3 4 3 3 4 4 4 4 6 5 5 6 11 10 2 9 14 14 15 16 14 12 12 11 10 10 10 8 8
17 16 14 14 15 15 17 18 19 20 20 22 23 24 23 18 12 10 9 5 2 1 3 5 6 2 4 7 8 9 10 12 11 11 13 14 12 15 17 11 7 3 4 5 5 6 4 2 4 5 6 7 7 7 6 6 6 7 6 4 4 4 4 4 5 5 4 5 6 7 8 10 11 4 9 13 14 14 15 13 10 10 10 9 9 8 9 9
17 16 15 14 14 15 17 18 18 20 19 20 22 20 13 4 1 2 3 5 6 7 4 6 11 6 10 9 5 7 15 15 8 8 11 14 11 9 8 6 4 3 4 5 5 5 5 4 7 8 8 7 8 7 8 7 6 6 5 5 6 5 5 6 7 7 5 5 7 11 10 8 11 7 10 13 12 12 13 13 11 11 10 9 10 9 10 9
17 16 15 14 14 15 17 17 18 20 18 18 17 11 4 2 1 1 0 5 11 14 11 9 14 12 15 16 10 9 13 12 9 8 13 15 11 7 4 4 4 4 4 6 5 3 5 8 10 8 7 7 8 7 8 8 7 7 6 4 5 4 6 7 6 6 5 5 7 11 9 8 12 7 8 13 12 11 14 14 13 13 11 10 11 12 11 9
17 16 15 14 13 14 16 17 18 19 18 17 14 7 8 9 5 3 3 5 9 15 16 14 15 14 19 26 21 10 5 7 11 13 12 13 12 8 4 5 5 4 4 6 5 5 7 10 8 7 6 7 7 8 9 9 8 7 5 4 5 4 5 6 5 5 4 5 7 10 10 10 12 4 7 14 14 11 13 16 17 16 14 12 13 14 13 11
17 16 15 14 13 13 16 17 18 20 20 17 12 10 10 8 4 6 5 4 8 12 13 14 14 12 17 23 17 10 8 7 8 12 11 12 10 9 6 6 6 4 5 8 9 7 7 6 7 8 7 8 7 8 9 8 7 6 5 4 5 5 4 4 5 5 5 8 8 7 8 8 6 1 4 9 15 11 8 10 12 13 15 14 14 14 14 14
17 16 15 14 12 13 15 18 20 20 18 16 16 16 14 14 12 8 4 2 7 10 12 17 13 10 18 18 9 11 9 7 8 11 11 11 9 8 8 8 7 6 8 9 10 9 5 4 8 9 8 9 9 8 9 7 6 7 8 6 5 8 7 5 4 4 4 9 5 5 3 5 4 2 4 3 10 11 9 10 8 8 11 12 12 12 12 12
17 16 16 14 10 11 14 17 17 15 14 14 18 17 15 20 21 12 2 2 6 5 8 14 10 12 23 18 10 9 5 6 10 11 9 9 10 9 7 7 6 9 12 10 9 8 6 6 11 11 10 11 10 9 10 9 6 8 9 8 10 11 6 3 3 5 3 7 4 6 4 5 5 3 9 7 9 11 10 12 11 8 11 12 12 12 10 10
17 16 15 13 9 10 12 10 10 12 15 14 14 15 16 24 19 10 4 2 6 3 2 7 6 11 16 11 10 6 2 5 10 15 14 12 13 11 7 5 6 10 11 7 5 5 5 7 11 14 13 12 11 9 9 10 7 7 6 8 12 11 5 3 3 2 1 6 5 5 6 3 3 4 10 10 12 12 10 11 11 10 10 10 10 11 10 10
17 17 15 12 9 8 6 6 10 13 11 10 12 19 21 26 12 11 5 3 4 2 2 3 2 7 8 11 13 9 3 4 6 11 14 14 13 13 10 7 6 8 8 6 5 5 8 10 12 14 13 12 11 8 9 10 8 6 5 7 10 8 6 5 4 3 4 5 5 2 6 4 2 2 5 10 14 15 14 13 11 10 10 9 10 11 11 11
17 16 15 13 9 8 8 10 13 11 9 11 19 23 24 25 8 9 2 3 2 2 3 2 3 6 7 12 16 9 5 3 3 7 12 18 15 11 10 10 9 9 9 9 6 4 9 12 12 14 12 10 10 8 8 10 7 6 6 7 8 6 6 6 6 6 4 3 5 4 4 5 2 3 3 11 13 14 17 15 12 12 11 10 11 11 11 11
16 16 15 13 10 10 12 13 14 12 12 17 22 25 27 22 8 3 0 2 1 2 3 3 4 4 4 10 14 9 7 1 2 5 10 18 18 11 8 8 9 10 10 10 7 4 7 11 11 12 11 9 8 7 8 10 7 6 6 7 5 5 5 6 6 5 1 1 6 7 4 4 2 3 5 9 10 12 13 12 12 11 10 11 11 11 11 10
15 14 13 12 10 11 11 14 19 15 14 18 22 27 23 12 1 3 3 3 2 2 1 2 3 4 7 9 9 9 9 4 3 2 5 9 13 9 5 5 5 7 8 8 7 6 6 8 8 8 9 8 8 8 10 12 9 5 5 6 3 2 2 5 4 3 3 2 8 10 7 7 3 5 7 7 9 14 12 8 10 10 10 12 10 9 10 10
15 14 12 11 12 9 6 9 13 9 11 17 23 22 11 2 3 2 4 1 3 2 3 1 1 4 10 10 6 8 9 6 4 2 3 5 8 6 5 6 4 4 6 6 7 8 7 9 9 6 7 9 9 9 9 11 10 7 5 5 3 2 1 2 2 2 4 5 7 9 8 9 6 6 6 3 6 17 16 11 12 13 12 12 10 9 10 10
15 14 11 13 14 11 10 11 11 11 14 18 19 11 2 4 1 4 3 4 2 2 4 2 2 1 8 9 7 9 8 4 4 3 3 5 6 5 7 7 6 5 6 7 7 7 8 8 9 7 7 10 11 7 6 8 9 8 5 5 5 1 1 3 3 2 5 6 6 5 8 6 3 4 5 6 7 15 15 15 16 16 14 12 11 10 10 10
16 15 12 14 15 15 18 18 17 16 16 17 11 3 3 2 2 4 3 4 1 3 4 3 4 5 5 8 7 10 8 5 4 3 3 6 6 6 7 6 6 7 5 5 6 6 6 6 7 9 8 9 12 8 6 7 8 9 6 5 6 4 4 4 3 2 3 5 5 4 8 3 1 1 6 4 10 12 9 11 13 14 15 13 11 10 10 10
15 14 13 14 14 17 20 19 16 14 13 13 5 2 2 3 2 1 3 2 4 5 6 6 8 5 4 8 7 9 8 6 5 3 3 6 6 6 8 8 8 7 4 4 4 6 8 6 7 10 6 8 13 11 9 7 6 8 5 6 5 5 5 4 3 3 4 4 4 1 4 1 0 2 6 4 8 10 8 9 11 12 12 11 11 11 10 10
14 12 13 13 15 19 20 18 16 11 9 7 0 3 3 4 2 1 2 2 4 5 8 10 7 2 4 7 8 10 9 6 6 4 2 6 7 6 7 9 9 7 5 4 3 5 9 7 6 8 7 9 12 9 9 8 5 6 4 5 5 6 6 2 4 6 5 3 2 3 1 1 1 1 6 8 7 8 10 10 11 12 11 10 11 10 9 9
11 11 10 12 16 19 17 16 14 11 7 2 2 4 3 2 2 1 1 3 5 7 9 9 4 2 1 4 7 10 10 5 5 5 3 4 8 8 8 8 8 8 6 5 3 4 7 6 4 6 7 10 11 10 10 9 6 4 4 6 6 6 7 4 3 2 4 4 1 0 2 2 2 2 5 7 7 5 7 11 12 12 12 11 9 9 9 9
7 7 6 10 17 17 13 11 10 9 6 2 3 4 2 2 4 3 4 5 7 7 5 4 3 3 2 1 4 9 11 5 4 5 3 3 5 9 9 8 8 9 8 5 2 2 5 4 6 8 8 8 9 11 9 8 7 6 6 6 4 4 4 4 2 1 2 4 2 1 4 5 4 1 1 4 5 4 1 8 11 10 10 10 8 9 9 9
5 5 6 10 16 16 14 10 11 8 3 2 3 3 2 2 3 4 7 6 8 7 3 1 1 2 3 2 2 4 9 6 3 5 4 3 3 7 10 7 7 11 10 7 3 2 3 2 5 7 10 7 5 8 6 5 5 6 6 6 5 4 3 2 4 3 3 4 1 0 4 4 3 3 7 10 10 6 3 6 9 9 9 8 8 10 9 9
4 4 4 6 9 9 15 12 12 6 2 3 4 3 2 3 5 7 8 7 7 6 2 1 1 2 3 1 4 2 5 6 5 4 4 3 4 7 11 7 7 11 11 9 5 4 1 3 3 6 9 7 4 5 6 6 2 3 3 4 3 4 4 3 4 3 4 4 2 4 5 3 2 4 10 12 12 12 10 9 9 7 8 8 8 8 8 8
3 2 3 6 12 3 15 13 9 5 2 3 2 2 3 5 6 8 9 8 5 3 1 0 1 1 3 2 4 4 1 2 3 4 4 5 4 7 10 9 7 11 13 10 6 3 2 3 3 5 4 6 5 5 7 7 4 3 2 3 2 2 2 2 2 2 4 4 3 4 3 4 3 3 8 10 10 9 9 10 8 7 8 8 7 7 7 7
2 2 2 8 14 3 15 9 4 3 2 1 2 3 5 6 6 9 10 8 4 2 3 3 4 3 2 2 3 4 2 1 1 2 2 6 6 4 8 9 7 8 11 10 7 4 2 3 3 2 2 6 6 4 6 8 7 6 4 4 4 4 3 3 2 2 3 5 4 5 3 4 3 2 6 10 10 9 10 11 9 8 9 9 7 8 8 7
1 1 3 10 13 4 12 4 2 3 1 3 3 4 6 7 7 9 10 8 5 5 6 6 7 5 2 3 3 3 4 1 1 2 0 4 7 5 7 9 10 8 7 7 7 5 3 2 4 2 3 6 6 6 10 10 7 6 4 3 4 4 4 5 4 4 2 4 2 4 3 3 4 2 6 10 10 10 11 12 10 8 9 9 8 8 8 7
1 2 3 9 7 6 8 2 3 3 2 4 5 7 8 7 7 8 9 7 5 5 5 6 7 6 5 5 3 2 5 2 1 2 1 2 5 6 6 8 13 10 5 5 6 5 3 2 4 3 2 2 2 3 6 6 6 5 3 3 4 3 4 6 4 4 4 4 3 3 1 2 2 1 7 10 11 11 10 11 12 9 8 9 9 8 8 6
2 2 3 6 1 9 7 2 4 4 4 5 7 9 9 7 8 9 9 8 6 5 5 5 5 5 4 3 2 2 4 2 1 2 2 2 3 5 4 5 12 10 5 5 5 5 4 2 3 3 2 1 1 1 2 3 4 4 3 4 5 4 4 3 3 4 3 4 5 6 2 2 2 6 10 12 12 12 10 10 12 11 8 8 8 7 6 5
2 2 2 2 2 7 4 0 2 3 4 5 7 9 8 7 8 10 12 12 10 8 7 4 2 3 3 1 1 4 2 2 1 3 2 1 3 3 4 4 8 9 5 8 8 5 4 2 3 5 4 5 5 4 5 5 3 2 3 6 7 6 5 4 3 4 3 2 3 6 3 2 4 10 13 14 14 13 11 11 11 11 10 9 8 6 5 5
2 1 1 0 2 2 2 2 1 1 2 3 4 6 7 7 7 10 12 12 12 10 6 3 1 2 3 2 1 3 2 2 2 3 3 2 3 2 5 8 5 5 4 11 11 6 3 1 2 5 5 6 6 5 6 7 5 4 5 6 6 7 7 6 4 4 5 3 3 2 7 9 7 10 14 15 15 13 12 13 12 11 10 9 8 7 7 7
1 2 1 1 1 1 2 3 3 3 3 2 2 3 5 6 5 5 5 5 6 5 3 2 1 1 2 1 0 2 4 3 2 3 3 3 3 2 4 4 3 3 3 8 10 6 4 1 2 5 5 4 4 3 2 7 7 7 8 7 6 6 7 8 5 5 7 6 2 2 12 15 9 9 14 15 15 14 12 13 12 10 9 9 9 9 9 9
1 1 1 2 1 2 3 4 4 6 7 5 3 3 5 7 6 3 3 3 2 1 1 2 3 1 2 2 1 1 3 4 3 3 2 3 4 4 5 3 1 10 10 3 7 4 6 3 5 5 2 3 4 4 2 6 4 3 6 6 6 6 9 8 6 7 8 7 6 10 14 15 12 12 14 14 15 15 13 12 11 10 9 9 10 11 11 10
2 2 2 2 2 1 3 4 3 5 8 7 5 5 6 8 7 5 3 2 4 3 1 1 4 4 3 2 1 2 2 1 2 3 2 2 4 4 4 4 4 11 10 1 2 2 5 4 7 6 4 8 7 5 5 7 5 4 4 3 1 3 8 8 5 6 6 6 13 17 14 10 10 11 12 12 12 13 12 11 10 10 11 11 11 11 11 10
1 1 1 2 2 3 3 4 3 4 5 5 5 5 5 8 8 5 2 1 2 4 1 1 4 4 4 4 1 1 4 3 3 3 1 1 3 3 2 2 3 8 9 5 3 2 3 4 5 5 6 6 6 5 7 8 8 7 8 9 9 5 2 5 4 5 7 7 13 17 12 6 5 8 11 12 12 14 13 12 11 11 11 11 11 10 10 11
3 5 5 2 2 2 2 2 3 3 2 3 4 3 3 5 5 3 2 2 3 3 3 2 3 4 4 4 4 4 6 5 6 4 1 1 1 1 1 0 2 5 7 4 3 4 1 2 1 5 6 2 5 3 4 7 9 8 8 11 11 7 3 4 2 2 7 13 15 13 9 6 7 11 12 12 13 15 15 14 12 10 10 11 11 11 11 11
7 7 5 3 2 1 1 2 2 2 2 2 2 2 3 5 5 3 2 3 2 1 1 2 3 3 3 4 4 5 5 5 4 3 2 2 2 3 4 2 3 2 3 2 2 4 1 4 2 5 6 1 6 4 2 6 7 4 4 7 7 5 1 4 5 3 7 16 15 9 8 9 12 15 15 14 15 15 14 13 12 11 11 11 11 12 12 10
Wind_Direction
334 333 331 331 328 328 327 327 328 327 329 329 329 331 329 327 324 318 317 318 318 317 318 319 320 322 323 324 326 326 325 320 313 310 276 247 244 238 227 221 213 228 258 242 232 247 257 227 224 197 169 228 204 223 220 199 200 202 187 198 219 219 222 216 203 214 285 295 300 310 331 71 329 326 105 66 67 88 72 59 71 61 70 95 113 126 130 128
331 331 330 328 327 326 324 325 325 325 327 326 326 327 326 325 322 318 315 319 320 317 318 319 320 322 322 325 326 324 325 318 309 294 260 249 250 243 230 229 223 221 236 220 215 222 204 196 213 181 139 191 235 217 218 216 182 185 178 196 222 216 234 230 214 277 298 288 303 310 300 37 24 281 119 98 111 101 83 64 82 82 85 97 113 121 126 126
328 329 329 328 327 324 323 323 323 324 324 324 325 324 324 322 320 318 315 319 320 318 318 319 320 321 323 325 324 326 325 317 304 270 265 258 246 240 227 220 214 211 224 220 221 220 209 225 213 175 142 210 255 232 231 250 216 200 180 213 237 224 249 251 224 250 263 281 302 297 293 353 346 296 44 123 137 111 115 127 106 105 113 115 118 122 125 121
326 327 326 326 326 324 322 321 321 322 321 323 323 323 322 319 319 316 314 318 318 319 318 320 322 320 324 323 322 327 324 311 278 259 275 268 238 231 220 212 207 207 218 223 238 227 223 271 300 183 164 221 254 229 233 240 230 217 182 212 238 225 251 259 243 255 271 284 286 284 314 342 315 343 64 132 115 98 152 160 142 136 134 130 129 128 124 115
322 322 323 323 323 323 320 319 319 319 320 321 321 321 319 317 316 313 314 317 316 319 319 320 322 322 326 323 323 326 322 301 290 298 319 296 237 222 212 206 200 205 209 217 233 227 236 255 27 287 197 234 243 201 240 229 218 250 222 220 230 225 249 265 256 264 281 291 298 319 337 313 303 8 42 126 139 193 188 170 147 140 139 136 134 131 122 113
319 320 321 320 321 321 318 318 316 316 318 318 318 319 317 315 313 310 311 313 316 317 318 320 322 326 327 324 325 320 277 245 308 2 10 4 322 216 205 201 199 202 205 214 221 209 231 193 148 202 202 235 222 207 239 226 201 242 264 245 238 234 242 256 245 247 264 285 295 304 292 295 9 17 1 77 166 182 117 123 127 125 128 129 131 129 120 117
316 317 318 319 319 318 317 316 314 313 314 315 315 316 315 313 309 308 308 309 313 313 316 320 321 327 329 331 336 261 203 278 274 355 6 9 11 245 198 197 197 198 203 209 205 197 197 157 169 193 198 239 219 217 233 229 200 214 252 255 246 239 235 246 252 257 255 266 276 282 310 318 36 25 2 50 46 102 101 107 112 112 118 123 128 124 120 125
313 314 316 317 316 316 316 315 315 312 311 313 312 311 313 311 307 305 305 306 309 312 316 318 322 327 330 339 348 136 276 250 241 265 350 347 357 310 188 194 195 197 205 206 201 195 178 169 199 191 199 234 220 225 223 221 231 214 237 251 252 245 229 237 244 258 259 251 263 307 325 303 101 94 50 79 87 103 109 113 115 116 119 126 127 118 122 132
307 311 312 314 315 315 315 314 316 312 310 312 310 308 308 308 306 303 303 305 306 310 313 317 322 324 327 335 330 307 246 234 235 252 325 334 322 215 186 190 196 202 208 215 210 191 177 189 205 193 202 237 233 241 217 192 241 218 220 239 245 247 235 227 231 239 241 230 225 233 299 293 188 105 54 89 113 111 114 117 120 124 127 132 122 115 125 135
302 306 308 311 312 312 314 314 315 314 312 310 308 306 305 306 303 300 301 303 304 307 309 315 319 322 330 328 251 258 247 240 247 261 290 325 315 233 200 194 200 204 209 222 213 192 202 210 200 184 217 254 244 247 221 182 231 237 224 237 238 244 245 230 239 240 220 226 222 182 227 279 311 95 83 115 129 121 118 121 126 130 133 133 120 121 132 137
296 302 304 306 308 310 312 312 314 313 311 309 306 304 303 303 300 298 299 299 302 304 305 310 315 319 318 311 225 237 238 231 236 233 237 321 321 280 232 223 208 203 208 217 216 208 215 229 230 65 254 263 262 267 264 213 238 269 263 276 265 260 266 250 251 246 200 230 220 173 177 275 333 84 144 162 150 131 125 128 133 134 136 128 121 130 136 134
289 296 300 303 306 308 310 312 312 309 309 307 304 303 302 301 299 297 296 297 299 300 303 306 309 311 295 284 235 235 233 226 239 247 265 290 298 289 277 274 243 214 209 206 221 219 219 233 239 193 250 291 307 280 276 262 259 261 248 267 277 278 270 252 248 237 202 231 202 153 139 288 317 227 160 157 161 138 126 132 137 137 132 122 125 133 132 132
283 289 294 299 303 307 309 310 310 310 311 308 304 303 300 298 297 296 295 296 297 298 301 299 300 298 286 273 246 247 253 264 274 283 279 283 292 283 274 277 265 237 218 209 226 227 224 232 225 214 255 293 286 275 294 300 303 273 253 200 258 300 279 249 225 193 186 216 177 140 209 266 268 240 169 156 158 135 128 138 140 136 127 124 131 130 125 133
276 282 289 295 300 304 307 308 309 312 312 309 305 301 298 297 295 294 293 292 294 297 297 294 295 285 262 265 268 266 270 274 279 281 273 274 285 282 273 269 267 246 226 220 229 230 229 231 225 231 258 230 247 294 306 309 330 293 299 223 204 238 272 272 228 166 171 220 158 136 196 239 253 243 179 163 156 138 135 144 139 133 128 128 132 122 118 126
271 276 283 290 295 300 303 305 308 311 311 309 306 301 298 297 295 295 294 292 292 293 293 289 273 266 279 273 275 284 289 280 272 264 260 264 267 275 273 266 270 243 225 223 228 228 229 225 218 227 258 238 231 287 297 302 328 300 290 289 282 165 257 298 275 170 176 233 147 143 209 235 248 240 180 170 159 142 139 147 141 131 130 129 125 116 113 111
272 273 277 284 292 297 300 305 308 311 312 311 307 303 299 296 297 296 295 293 291 288 288 286 243 215 259 276 283 303 290 251 245 249 250 253 246 245 255 265 283 253 224 222 228 229 227 215 195 203 231 252 218 218 285 302 313 313 176 244 250 177 226 303 294 204 185 219 151 166 205 235 252 225 169 171 160 145 141 149 142 131 135 132 124 122 119 114
273 273 274 281 287 293 299 305 309 311 310 311 310 305 299 295 295 293 291 289 288 281 257 256 231 196 243 275 297 305 265 240 240 246 243 239 236 236 243 258 283 258 223 218 225 224 215 195 188 202 208 226 189 161 231 258 263 301 309 227 239 196 184 220 284 276 187 203 215 197 204 227 247 180 158 173 159 146 146 150 145 137 138 132 127 127 124 121
273 271 271 277 284 292 300 304 308 310 309 310 310 306 300 294 291 289 283 278 283 281 249 250 247 200 244 254 267 272 273 264 248 242 239 236 238 234 227 228 271 271 214 208 217 208 188 178 182 197 217 211 194 171 200 219 199 225 228 221 254 228 194 195 245 266 191 202 218 203 218 233 242 171 151 174 162 151 154 153 148 142 138 134 131 127 124 122
277 271 267 273 281 290 298 302 307 310 311 311 311 312 307 294 288 282 265 246 176 193 234 212 198 198 291 252 230 250 297 306 267 237 231 227 225 225 215 219 256 275 197 196 204 197 171 156 179 199 219 210 206 185 184 200 183 196 205 203 228 228 231 213 227 243 189 193 215 205 220 234 237 203 151 169 164 155 155 148 140 138 136 131 126 123 122 120
281 272 268 270 277 287 294 300 307 310 312 314 318 323 323 315 285 272 223 198 203 231 240 176 186 231 292 279 252 289 315 323 288 225 221 216 196 195 202 207 228 227 212 186 189 191 149 186 214 208 207 203 207 178 170 206 209 209 209 210 228 229 240 229 229 239 181 174 228 218 220 235 237 212 154 161 157 154 152 143 143 143 141 135 125 123 121 119
283 273 268 269 275 284 291 299 304 308 310 309 314 324 312 262 236 52 79 227 227 234 247 221 199 221 258 263 277 313 323 322 301 270 244 222 182 169 190 175 186 218 212 178 181 177 162 209 221 202 188 192 203 178 172 209 228 234 223 217 243 234 242 246 238 240 187 176 238 226 216 237 240 221 147 154 152 160 160 147 150 147 140 135 125 125 125 124
287 273 265 267 272 281 291 299 302 306 305 298 301 288 260 267 276 325 305 268 249 232 238 239 223 230 251 258 266 276 288 285 292 293 257 214 181 179 179 161 190 204 183 179 184 186 204 222 210 180 176 182 198 189 185 205 221 236 232 217 245 246 260 280 271 253 198 184 242 225 207 234 244 215 141 160 157 168 173 156 154 152 144 140 134 133 133 131
292 276 267 266 269 280 290 297 301 300 294 285 271 245 255 277 316 333 294 264 280 249 230 233 229 230 246 257 258 233 233 246 265 279 247 203 182 180 179 185 197 194 194 200 193 189 210 219 182 171 177 180 201 199 187 204 221 231 224 204 234 242 240 268 277 268 211 205 227 204 197 242 259 115 119 165 159 155 160 147 145 147 142 139 137 135 136 136
294 278 269 264 267 281 289 298 301 298 297 286 259 253 272 286 285 304 319 261 275 260 225 221 215 214 234 242 224 191 211 221 227 262 246 202 180 170 187 194 185 202 218 212 203 205 219 186 163 175 188 187 204 207 192 201 222 232 223 198 221 237 224 225 275 314 252 229 217 116 148 269 287 128 111 127 138 130 117 116 119 124 124 125 127 127 131 135
298 283 271 264 265 281 293 302 297 303 318 290 266 277 301 303 286 263 283 311 269 267 219 212 201 220 231 223 194 185 215 224 215 238 244 207 182 170 187 190 183 212 216 211 210 214 229 192 169 183 200 197 202 210 201 193 206 240 230 202 216 234 232 237 319 5 328 257 232 113 146 265 309 123 138 129 117 114 117 128 132 127 123 124 126 126 127 127
302 287 271 260 258 280 298 303 289 312 320 283 276 305 316 320 305 224 173 329 263 278 187 177 170 215 219 190 168 179 261 259 222 224 236 226 196 177 183 183 188 213 205 203 221 212 217 202 180 188 201 203 206 213 203 184 191 236 220 193 217 230 228 269 312 3 267 257 250 151 160 231 349 113 145 140 127 124 128 135 136 135 132 131 128 128 130 126
305 293 274 253 249 273 285 284 294 312 301 271 313 327 323 331 325 179 161 330 248 236 158 169 157 183 178 155 155 157 213 248 213 212 222 226 203 175 187 190 180 204 185 182 226 199 188 196 190 190 195 204 212 213 193 173 183 227 203 190 216 212 198 232 245 232 228 256 284 208 148 118 73 179 149 125 128 135 139 139 139 138 132 128 128 129 130 127
304 301 279 248 240 258 260 279 295 292 268 288 323 328 331 335 316 174 159 315 221 143 138 191 197 166 152 152 154 169 236 230 178 193 203 216 206 173 192 198 177 190 185 189 214 175 175 195 194 187 194 209 210 205 183 168 192 230 204 206 216 178 175 209 217 235 244 253 284 262 157 99 92 224 147 124 132 140 144 144 142 142 135 130 130 128 123 120
304 307 283 248 240 253 259 271 270 265 287 312 323 325 327 323 301 151 147 268 239 192 141 132 173 168 145 150 157 193 239 232 174 178 180 203 202 182 194 189 168 188 202 208 207 165 180 197 194 187 199 212 198 198 194 185 209 226 201 218 218 156 169 207 212 223 215 180 250 239 180 109 124 212 165 146 148 146 148 146 142 141 134 129 126 121 117 113
300 306 286 253 243 251 262 268 260 271 307 318 322 324 320 313 352 105 211 238 315 284 109 118 194 157 145 149 157 197 219 242 257 188 153 183 186 177 174 161 156 184 208 218 212 214 201 188 198 200 201 204 190 198 207 203 212 213 204 222 224 128 167 217 223 165 130 240 245 230 188 127 134 220 193 172 163 153 148 143 141 136 127 126 121 115 115 113
297 302 290 250 239 248 267 268 262 281 310 318 327 326 318 357 62 178 211 292 339 319 23 59 234 138 152 153 155 194 214 243 255 207 159 163 171 170 160 171 179 175 200 217 215 231 222 192 204 211 191 188 192 205 211 208 211 214 209 197 207 319 339 242 287 122 170 234 247 230 188 139 141 211 220 245 179 158 151 149 148 141 132 128 122 118 117 115
297 301 287 247 238 244 247 259 282 295 300 318 329 328 27 74 13 220 248 335 333 297 352 34 358 12 169 160 159 188 203 227 235 218 177 162 173 187 179 183 181 170 197 205 194 215 227 213 208 204 195 187 188 201 210 208 207 209 205 163 164 233 208 217 243 185 199 239 250 207 167 151 161 201 275 288 190 165 158 153 148 143 137 132 127 123 117 113
295 298 282 248 239 243 248 265 291 298 305 321 324 335 92 123 214 210 254 318 307 287 337 7 330 315 192 167 167 187 201 217 208 208 200 177 172 195 207 201 170 160 182 179 166 188 221 247 222 203 203 192 188 188 196 208 200 199 200 158 154 161 170 210 222 186 215 240 256 196 158 181 257 87 332 301 167 158 147 139 134 131 131 129 125 118 113 112
295 297 280 254 242 245 253 268 284 293 308 317 317 106 118 211 234 220 219 307 326 318 346 337 314 314 193 185 175 176 200 229 203 194 215 188 178 195 211 210 181 162 146 148 165 183 200 237 224 203 197 185 193 193 180 178 187 200 187 136 153 166 161 196 192 174 208 223 277 282 157 194 181 81 353 15 131 132 122 117 114 115 118 119 117 114 113 113
298 295 277 260 248 248 255 264 269 275 297 312 22 147 193 206 243 292 212 318 335 336 339 323 307 314 191 192 179 175 191 220 204 207 241 190 190 197 199 209 198 171 145 161 188 188 197 231 223 198 198 180 187 195 170 158 184 208 155 128 182 181 145 155 187 172 171 182 324 3 90 45 68 45 14 38 81 113 124 119 115 117 118 119 117 116 118 115
293 287 275 260 253 255 259 259 253 247 256 274 160 205 217 217 250 308 290 305 338 346 337 330 334 9 243 185 178 183 189 206 187 191 255 199 188 194 196 211 200 177 166 176 207 183 187 242 238 187 205 194 178 178 176 176 183 185 171 180 192 163 133 129 202 185 110 127 219 322 119 114 123 30 18 40 45 66 120 122 121 124 124 123 120 120 122 119
287 282 269 256 258 261 264 251 218 214 237 211 192 213 200 262 268 303 307 314 342 345 342 346 349 346 337 183 186 179 179 203 184 173 231 234 192 193 196 207 196 187 185 171 206 193 157 228 242 191 202 217 179 165 183 191 161 160 201 195 143 123 123 115 156 285 79 132 234 266 147 155 165 154 93 106 75 22 56 115 119 125 125 122 120 122 119 116
298 289 264 267 268 259 253 229 182 185 230 194 218 237 190 246 277 309 307 316 329 323 334 355 278 327 13 14 280 183 170 190 188 169 207 240 230 201 190 201 202 195 192 174 196 258 140 170 247 206 194 214 172 148 191 226 160 155 190 166 131 162 197 151 163 188 157 150 166 154 161 175 188 162 160 160 150 151 154 126 126 129 127 122 121 120 114 113
309 302 264 304 317 254 226 198 166 179 238 180 209 237 230 276 278 278 276 277 291 295 314 6 232 318 355 352 309 296 167 182 192 178 191 200 237 218 192 190 204 200 196 183 189 247 196 139 237 230 193 185 170 159 198 222 169 102 149 159 154 173 175 169 169 159 154 155 133 144 173 218 251 175 168 168 162 158 154 142 135 131 127 123 119 119 115 114
296 326 257 334 359 240 197 176 161 198 224 176 213 250 280 298 279 270 268 260 272 288 273 260 190 306 321 296 296 301 166 164 183 179 191 189 208 230 204 186 187 197 197 194 192 218 237 168 214 261 205 173 197 200 183 183 169 130 161 201 189 142 137 162 175 138 134 142 137 141 187 248 262 196 169 156 150 153 147 134 128 127 124 114 110 116 112 108
288 343 258 334 355 160 173 162 170 204 203 223 276 262 263 278 274 284 289 278 280 284 258 258 231 233 298 299 297 296 305 17 180 191 199 191 186 216 219 197 183 188 192 200 207 194 197 191 194 259 217 191 214 209 168 171 172 159 166 199 180 146 123 134 210 261 116 127 153 148 175 245 260 239 173 155 149 151 144 131 127 128 121 113 115 120 114 115
272 311 269 326 341 168 164 154 187 181 203 234 254 261 259 269 271 281 290 285 277 257 251 256 240 225 239 249 256 280 283 312 188 212 190 200 199 211 226 206 197 197 179 186 206 187 146 143 172 208 220 209 221 212 190 177 151 137 158 185 155 131 128 137 186 234 121 103 127 117 126 243 268 245 168 155 147 145 141 132 126 124 119 120 127 124 122 131
258 299 284 313 320 172 164 152 166 179 243 231 251 264 259 268 272 276 284 284 278 262 252 250 238 218 213 225 221 276 287 287 198 208 213 231 223 230 239 211 202 201 168 167 196 185 162 152 179 204 256 255 271 234 203 176 141 145 184 173 142 150 168 152 165 184 151 143 131 88 88 246 264 169 140 138 137 137 136 128 124 124 124 128 133 131 131 137
268 265 270 304 248 167 177 189 166 191 224 226 247 257 254 261 264 266 272 268 255 251 254 248 229 203 194 207 203 241 271 270 237 260 242 220 236 242 258 222 207 198 169 179 182 174 201 202 140 144 161 180 80 79 223 217 187 181 189 173 166 175 180 169 151 134 156 199 160 126 156 234 166 131 127 129 134 133 128 125 125 127 131 135 132 128 128 123
291 232 228 287 167 168 191 302 136 185 218 235 253 258 257 262 259 255 258 258 251 251 262 260 210 148 131 98 294 268 254 173 204 296 283 254 269 258 17 350 226 200 179 187 167 141 180 185 118 137 166 177 171 186 205 201 211 232 184 174 182 189 182 170 143 133 173 237 123 120 152 158 131 135 134 137 138 133 128 127 128 132 139 139 130 120 116 111
316 293 243 61 118 163 257 293 207 193 213 235 258 255 246 249 259 254 251 252 246 242 250 251 225 78 95 88 320 281 274 197 217 290 301 304 288 268 15 350 267 207 174 177 162 124 118 176 132 136 156 185 193 210 193 158 164 212 193 168 179 197 180 140 118 165 171 127 40 90 142 135 144 149 143 145 143 136 135 136 136 141 142 136 127 123 121 116
288 308 310 64 102 165 266 272 254 243 244 250 274 267 255 263 276 268 256 254 241 226 222 242 246 104 150 166 322 275 289 295 284 301 290 276 280 293 344 321 249 344 358 173 162 118 102 190 211 142 155 198 204 249 194 147 163 188 180 166 164 177 165 145 157 191 160 121 41 192 145 140 159 164 150 151 147 140 144 145 143 144 139 130 126 126 123 119
267 310 280 302 292 175 209 243 238 245 258 264 265 268 273 280 282 270 265 292 315 58 80 347 329 263 210 220 135 253 307 335 336 306 299 309 318 339 339 302 332 10 6 165 170 128 120 180 213 172 111 31 25 354 47 114 131 158 168 176 173 163 161 166 190 189 164 147 160 176 163 153 160 163 154 152 146 140 141 140 136 133 128 127 128 127 125 120
293 312 274 279 286 232 243 252 236 250 257 253 251 252 261 270 272 260 253 325 341 340 68 306 290 293 298 297 180 202 263 339 333 298 302 353 351 3 357 329 349 5 9 64 196 148 132 183 208 169 73 25 12 8 68 99 92 56 50 45 53 175 170 170 178 154 137 138 149 157 161 151 148 153 146 137 133 130 129 131 133 132 131 131 131 130 127 119
254 302 275 274 273 255 261 268 246 243 252 249 248 250 250 258 263 264 243 154 295 305 325 214 264 301 326 326 340 249 246 215 214 266 275 60 14 3 8 355 350 350 358 16 339 333 129 189 210 138 80 9 348 21 67 94 102 78 43 25 16 5 110 132 130 108 88 96 130 140 137 119 117 126 124 124 128 128 131 137 138 137 136 135 133 131 125 114
271 258 248 262 287 245 231 265 248 232 252 251 246 263 282 276 283 305 302 233 215 235 241 251 307 330 333 338 347 309 278 239 204 219 236 133 148 216 237 40 50 356 351 8 343 330 82 161 212 94 94 319 314 9 70 86 84 71 35 15 5 357 39 103 116 129 123 124 125 126 131 139 137 127 124 131 136 136 140 143 141 141 141 139 136 131 123 118
315 282 262 267 291 307 20 317 292 261 254 255 268 302 295 288 307 333 318 300 272 195 245 331 339 326 313 314 290 255 255 248 218 207 190 165 171 191 210 201 123 116 319 360 3 312 159 131 117 99 111 255 296 312 32 64 58 39 6 355 334 314 10 80 56 39 126 136 140 153 162 152 143 138 138 144 145 145 147 147 145 145 143 140 135 130 124 120
Height
824 823 822 821 820 819 818 817 816 815 814 813 812 811 809 808 807 806 805 804 803 802 801 799 798 797 796 794 792 790 787 784 781 782 778 767 766 770 769 769 770 771 772 772 772 773 773 773 773 774 776 776 778 776 775 774 773 779 786 793 797 795 789 779 776 775 773 770 762 756 752 753 752 747 744 745 750 753 756 756 752 750 752 757 762 767 771 776
823 822 821 820 819 818 817 816 815 814 813 812 811 810 808 807 806 805 804 802 802 801 800 799 797 796 795 793 792 789 787 783 781 778 768 762 766 767 767 768 769 770 770 770 771 771 772 773 773 774 776 777 777 774 775 772 772 779 784 790 792 786 776 769 771 770 769 769 763 758 753 750 752 749 743 753 762 756 760 764 757 759 763 764 767 771 774 776
822 821 821 819 818 817 816 815 814 813 812 811 810 808 807 806 805 804 803 801 801 800 799 798 796 795 794 792 791 789 786 783 779 770 758 760 764 762 764 766 766 768 769 769 770 770 772 772 773 774 776 778 776 774 776 773 772 775 780 788 784 775 769 765 767 767 765 765 764 761 753 750 749 745 744 757 764 757 762 766 762 767 769 770 771 773 776 778
821 821 819 819 818 816 815 814 813 812 811 810 808 807 806 804 803 802 801 800 800 799 798 797 796 794 793 792 790 788 787 783 771 759 755 756 757 758 762 763 764 766 767 768 769 770 771 772 773 774 777 779 776 775 777 773 772 773 776 783 776 769 769 764 764 764 762 762 762 760 754 752 747 743 747 756 765 765 762 756 755 762 765 769 772 774 776 779
821 820 819 818 816 815 814 813 812 811 810 809 807 806 805 803 802 801 800 799 799 798 797 796 795 793 792 791 789 788 787 779 763 754 755 754 753 755 758 760 763 764 766 768 768 769 770 772 773 775 778 779 777 777 776 770 770 773 772 772 768 767 768 762 761 761 760 759 760 760 758 754 747 745 751 754 761 764 757 751 749 753 758 764 768 772 776 780
820 819 818 817 815 815 813 812 811 810 809 807 806 805 804 802 801 800 799 798 798 797 796 795 794 793 791 789 788 787 786 772 757 755 755 753 753 753 755 759 761 763 766 767 767 769 769 771 774 777 778 777 778 777 773 767 768 775 772 766 764 764 765 761 758 759 758 759 760 759 756 752 751 752 753 753 755 752 748 750 752 753 758 762 766 771 776 781
819 818 817 815 814 813 812 811 810 808 807 806 805 804 802 801 800 799 798 797 797 796 795 794 793 792 790 789 786 786 786 770 755 757 755 754 754 753 755 758 760 763 765 765 766 768 768 771 774 775 776 777 776 773 770 767 767 774 773 766 762 760 761 759 757 757 758 759 756 753 751 751 756 756 754 756 754 748 748 752 755 758 762 765 768 771 776 780
817 816 815 814 813 812 811 809 808 807 806 805 804 802 801 800 798 798 797 797 795 795 795 793 793 792 790 789 786 788 787 769 754 757 757 756 756 755 756 758 761 763 762 764 764 766 768 771 772 772 776 775 772 769 767 768 769 771 771 765 760 758 758 756 756 757 757 758 753 750 752 751 754 754 756 760 756 751 752 755 758 761 765 769 771 774 777 779
816 815 814 813 811 810 809 808 807 806 804 803 802 801 800 798 797 796 796 795 794 794 793 792 792 791 791 789 790 788 775 759 754 758 758 758 758 757 757 758 760 761 761 762 762 765 767 768 769 768 773 770 768 767 764 770 772 766 764 762 759 756 754 753 755 756 756 755 751 753 754 750 748 753 761 763 757 755 755 758 762 764 768 772 774 776 777 779
815 814 813 812 810 809 808 806 805 804 803 802 800 799 798 797 796 794 794 794 793 793 792 792 791 790 791 788 792 785 762 754 757 758 759 759 759 759 758 758 759 760 761 761 762 764 764 763 763 764 768 767 765 764 763 768 767 759 759 759 757 755 751 752 754 753 754 754 752 755 757 751 745 754 770 766 757 756 758 763 766 767 770 772 775 777 778 780
813 812 812 810 809 808 806 805 804 803 802 800 799 798 796 795 794 793 793 792 792 792 791 791 790 790 790 788 793 780 756 754 757 756 759 758 759 760 760 759 758 758 759 760 760 761 761 759 760 764 767 765 763 762 761 761 760 757 758 759 756 754 753 752 753 753 753 754 751 752 755 754 749 757 768 764 759 756 759 766 768 770 772 773 776 777 778 781
811 811 810 809 808 806 805 804 802 801 800 798 797 796 795 793 792 792 791 791 790 790 790 789 789 789 788 789 787 767 752 755 755 755 758 757 759 759 759 760 759 757 757 758 758 757 759 758 761 767 766 764 765 765 760 755 757 756 757 762 759 755 756 753 752 752 752 754 749 750 761 762 757 760 761 758 759 758 760 767 769 771 773 773 776 777 780 782
810 809 808 807 806 805 804 802 801 799 798 797 795 794 793 791 790 790 789 789 789 788 788 788 788 788 788 785 771 756 754 757 755 755 755 756 758 756 757 758 758 757 756 756 755 755 757 757 761 765 762 765 768 763 757 753 756 757 756 762 762 763 761 752 750 751 751 752 745 751 772 773 760 758 758 756 758 760 764 768 769 771 773 775 776 778 782 784
807 807 806 805 804 803 802 800 799 798 796 795 793 792 791 789 789 788 787 788 787 787 787 786 787 786 787 779 760 754 757 756 756 755 752 755 757 754 754 754 755 756 755 754 754 754 756 757 760 762 761 764 764 760 759 759 759 760 761 762 765 771 766 751 748 750 753 751 744 753 775 775 760 757 757 756 757 760 766 769 769 772 773 775 776 778 782 783
805 805 804 803 802 802 800 799 798 796 795 793 791 790 788 788 786 786 786 785 785 786 785 785 785 785 786 776 757 752 754 755 755 751 750 753 756 755 752 751 753 753 753 753 753 753 754 756 760 763 762 760 761 765 768 767 762 762 771 773 769 772 767 752 747 748 753 751 745 756 773 770 759 756 756 755 756 759 766 770 770 772 774 775 777 778 782 784
803 802 802 801 800 800 798 797 796 794 793 791 790 788 786 785 784 784 783 783 784 784 784 784 782 784 786 771 753 750 750 750 748 746 747 750 752 753 750 751 752 751 752 752 752 753 753 755 758 760 761 761 764 770 774 775 772 766 773 779 772 770 770 761 750 745 748 751 750 756 767 766 757 754 754 754 756 759 765 770 771 773 774 775 777 779 781 784
801 800 800 800 799 798 797 796 794 793 791 789 787 785 783 782 781 781 780 781 781 781 783 781 780 784 777 760 750 748 745 743 743 743 745 746 748 749 750 752 751 749 749 750 751 752 752 755 757 758 760 762 765 770 780 787 785 775 774 776 771 767 769 767 757 746 746 752 755 756 761 760 752 751 755 754 756 760 764 770 772 774 774 775 777 779 782 784
798 798 798 798 797 796 795 794 793 791 790 788 785 783 780 778 778 778 778 779 779 781 782 780 783 781 762 750 750 744 741 742 741 741 743 744 745 746 749 751 749 748 749 751 751 751 753 754 757 762 762 763 764 769 782 786 782 779 776 775 772 767 766 767 760 750 748 753 758 760 762 757 751 752 756 754 755 760 763 767 771 773 774 775 777 779 783 785
796 796 796 795 795 795 794 793 792 790 788 786 784 781 776 774 775 776 776 777 778 779 776 774 777 768 748 744 747 741 740 742 739 739 740 742 744 745 747 748 748 750 751 754 753 750 753 756 760 765 765 763 763 767 774 774 770 772 772 772 771 768 766 764 758 750 748 755 759 760 761 756 752 754 756 754 755 759 762 766 772 774 775 776 778 781 784 786
794 794 793 793 793 793 792 791 790 789 787 785 783 780 776 773 774 774 775 775 772 767 763 763 766 759 747 742 742 741 740 739 738 738 738 739 742 743 745 747 748 751 752 755 755 749 752 762 764 762 762 761 760 762 765 764 762 764 768 770 768 769 767 759 754 749 746 756 760 755 757 756 752 752 754 755 758 762 765 769 773 774 775 776 779 783 785 787
792 792 791 791 791 791 791 790 789 787 786 785 783 783 780 775 773 773 774 770 764 761 759 758 759 756 748 740 740 744 744 741 738 736 737 738 739 743 744 745 750 754 753 752 753 750 753 762 761 756 757 756 756 758 759 761 761 762 766 770 770 770 766 756 753 750 746 756 758 752 757 758 749 751 754 755 761 766 766 768 772 773 775 777 779 783 786 787
791 790 789 790 789 789 789 788 787 786 785 784 783 783 780 774 771 772 773 770 761 756 756 755 755 754 745 738 741 747 750 748 741 735 734 736 737 741 742 744 752 755 752 751 753 756 758 758 754 752 752 751 753 756 758 760 761 763 766 771 773 769 765 758 753 748 748 756 756 752 759 757 748 750 755 755 759 764 763 762 766 769 773 776 778 782 784 787
789 787 788 788 787 788 787 786 785 784 783 781 781 780 775 771 771 772 773 772 761 750 749 749 749 750 743 737 739 745 749 748 745 735 730 733 735 738 741 745 751 753 752 752 753 759 762 755 749 749 749 750 755 755 757 761 761 764 767 772 774 767 767 766 757 750 749 750 749 751 758 756 751 752 756 756 754 759 764 765 766 766 769 773 776 779 782 786
787 786 786 785 786 786 785 784 782 781 780 778 777 774 770 769 770 773 773 773 762 743 737 737 740 742 735 731 736 741 743 742 741 733 727 730 733 735 739 742 750 753 750 749 750 755 756 747 743 745 747 750 755 755 757 763 765 764 764 769 770 764 764 765 758 752 749 748 744 752 767 764 754 756 761 759 756 761 768 771 774 772 771 774 777 780 782 785
785 785 784 784 785 784 784 783 780 779 778 776 773 768 768 768 768 773 775 774 762 740 729 728 731 730 722 726 734 735 738 736 732 729 725 726 729 733 737 738 746 751 749 748 750 753 750 742 739 745 748 749 753 755 755 759 766 765 759 761 762 760 761 762 758 757 762 763 748 751 777 776 761 762 766 764 765 770 772 774 778 778 776 777 779 782 784 786
783 783 782 782 783 782 783 781 778 778 776 772 769 767 769 766 766 771 773 776 764 738 727 726 725 718 713 723 729 731 740 733 722 723 724 724 725 729 737 738 738 743 745 746 748 748 744 739 738 743 747 749 752 754 751 753 765 767 755 751 754 757 762 762 760 764 772 771 750 746 769 779 774 773 768 765 771 775 776 779 780 779 779 779 780 782 784 786
782 781 780 780 781 781 782 780 777 777 774 769 767 768 768 764 766 767 770 778 762 732 725 726 721 713 711 717 721 731 740 726 716 720 720 722 723 725 735 738 736 739 738 743 750 743 736 739 740 741 744 749 751 751 747 748 761 762 748 745 751 756 762 761 760 765 766 761 752 748 756 770 784 783 770 768 775 778 778 781 782 780 781 781 781 783 784 785
781 779 779 779 779 780 780 778 778 775 772 768 766 768 765 763 767 766 772 775 746 719 719 721 717 711 710 714 718 725 726 716 717 719 714 718 721 721 732 734 734 738 732 739 751 738 731 739 739 739 744 747 745 742 741 744 754 752 742 744 748 751 757 755 757 762 759 761 764 756 752 769 791 786 773 773 777 781 781 780 782 781 781 782 782 784 784 785
779 778 777 777 778 778 778 778 776 772 769 768 767 766 762 764 763 764 777 768 728 709 712 712 713 713 712 715 719 721 718 714 717 713 709 715 716 717 726 728 729 736 731 734 743 736 729 733 732 735 741 740 738 736 736 742 748 742 738 743 745 749 752 750 756 760 759 768 771 759 751 772 798 792 780 780 779 782 783 779 781 781 781 783 783 785 786 787
777 776 776 776 776 777 776 775 772 769 769 769 767 764 761 763 763 770 780 757 720 710 709 710 713 712 714 719 722 722 719 717 714 709 709 712 713 715 720 723 726 733 734 732 736 733 726 725 726 729 731 731 733 733 733 736 739 737 739 745 748 752 751 749 755 757 765 775 768 755 748 766 799 798 780 777 772 772 778 781 782 781 782 784 784 786 787 788
775 774 774 775 775 775 775 772 769 769 770 769 766 763 760 762 768 777 768 735 717 716 712 713 714 710 714 719 722 722 720 718 714 712 714 713 716 719 721 726 729 734 739 738 737 733 728 727 726 722 722 725 730 733 732 732 735 738 741 747 756 761 758 758 760 760 775 779 759 751 749 757 787 792 775 770 766 763 769 775 779 781 783 785 785 787 787 788
773 772 772 772 772 773 772 769 768 770 769 768 767 763 762 769 775 772 752 726 724 726 717 716 716 712 714 716 719 720 719 719 715 714 716 716 720 722 721 726 730 737 745 743 739 738 733 728 723 720 719 720 729 738 738 734 735 741 744 751 765 773 772 774 774 770 776 770 752 750 751 756 778 783 775 772 768 765 764 765 772 777 781 784 785 787 787 789
771 770 770 770 770 771 769 767 768 770 768 768 768 763 765 775 771 757 746 736 731 725 717 717 718 715 714 716 718 717 718 719 715 715 715 715 721 723 721 720 722 732 740 740 741 743 740 732 723 723 721 715 722 736 743 740 738 742 747 754 766 775 780 785 782 777 774 763 752 747 748 765 784 784 779 774 766 766 767 767 772 775 779 783 785 787 788 791
770 769 768 768 769 768 767 768 769 769 769 768 766 765 770 775 762 744 741 738 729 722 720 720 720 714 712 715 714 713 718 720 714 715 717 716 723 725 723 720 718 723 730 736 740 741 746 742 726 722 720 713 715 724 730 733 735 738 738 745 757 761 767 777 776 773 770 761 755 752 757 777 791 786 782 774 766 769 773 775 777 779 782 784 785 788 791 793
768 767 767 766 767 766 765 768 768 768 771 769 766 768 771 770 757 743 739 737 730 726 724 721 718 716 713 712 710 708 714 717 715 717 718 718 722 723 721 720 717 719 725 735 737 732 740 738 718 711 712 708 713 715 714 724 735 735 731 740 751 746 746 760 763 761 760 758 764 774 780 787 788 784 782 778 775 777 779 780 782 784 785 786 788 791 793 795
766 765 765 764 764 764 764 766 768 769 771 769 767 769 767 759 749 743 740 736 733 731 729 724 719 720 717 711 710 709 710 713 715 719 720 717 717 718 717 715 713 715 720 728 731 728 736 734 711 707 710 704 708 711 708 718 729 732 734 737 738 731 732 750 761 760 757 761 779 791 792 790 787 785 784 782 784 786 784 784 785 786 787 788 791 793 794 796
765 764 763 763 761 761 763 765 767 770 770 769 768 764 760 753 745 742 739 735 733 731 734 734 726 725 724 716 711 709 711 714 714 719 721 717 715 712 712 711 708 710 714 718 723 720 726 730 712 707 714 706 701 705 706 708 714 726 734 729 725 728 731 739 756 765 761 767 787 793 788 788 788 787 789 787 788 791 790 788 788 789 790 791 793 794 795 797
765 764 762 761 759 759 761 764 767 770 769 768 767 761 755 751 744 741 738 735 734 732 736 741 733 727 728 725 716 708 711 717 716 716 717 716 714 707 706 709 705 705 707 711 720 716 716 727 717 705 710 706 698 706 714 709 705 714 720 716 724 739 743 742 753 764 763 774 794 793 786 787 784 784 788 787 786 789 792 791 791 793 793 794 796 796 797 799
765 764 761 758 757 757 760 763 766 769 769 767 768 762 754 750 744 740 738 736 735 734 737 742 737 731 730 728 723 713 711 714 715 713 714 715 713 704 701 704 704 704 704 707 717 715 713 726 724 706 701 704 703 710 720 718 711 711 713 715 720 730 738 741 747 753 758 776 795 794 790 787 779 777 781 782 783 785 788 791 793 795 796 796 797 798 799 800
764 765 762 757 756 756 759 763 766 768 767 764 764 760 754 750 743 736 734 732 732 733 736 740 741 738 732 727 724 717 711 711 711 711 711 711 711 706 699 698 700 702 702 704 711 712 714 723 725 712 702 706 710 709 714 719 719 719 723 726 724 723 729 735 740 743 747 765 787 793 793 787 776 773 775 778 783 785 787 790 793 796 797 797 799 800 800 800
765 766 762 757 757 757 759 764 765 765 765 762 760 758 754 749 742 736 732 730 730 730 731 736 738 737 734 729 726 720 714 712 710 709 708 707 709 707 698 693 695 697 701 708 710 711 714 719 722 719 714 714 709 700 701 708 713 718 723 726 726 726 731 741 748 742 735 751 773 782 787 786 778 774 773 776 781 784 786 788 792 796 797 798 801 800 801 802
766 766 761 757 758 757 759 764 764 762 763 762 759 755 752 747 742 738 733 729 730 729 728 729 730 731 733 730 727 723 716 712 710 709 707 705 705 701 693 689 690 691 698 707 708 705 708 714 720 720 715 712 704 695 696 700 705 712 717 718 721 725 729 739 749 742 734 750 766 769 776 781 777 773 771 774 780 782 785 787 791 796 797 800 802 801 802 805
766 764 759 758 758 758 761 765 765 764 763 759 755 752 749 746 743 738 734 731 731 729 728 726 723 725 729 727 724 724 719 712 709 707 705 704 700 694 690 688 688 689 694 703 705 702 706 714 719 718 713 708 702 697 695 696 704 713 716 714 717 722 723 725 731 732 737 751 758 761 775 781 775 772 772 776 780 783 786 787 792 798 800 801 802 802 805 807
766 763 760 758 758 759 762 762 763 764 761 757 755 751 747 744 740 737 735 733 730 728 725 723 718 717 720 720 720 722 719 715 710 705 703 703 697 690 688 687 687 689 692 698 699 700 709 716 717 721 726 721 717 716 711 707 708 712 715 714 713 717 720 720 723 727 737 747 744 751 774 782 775 774 776 779 783 786 788 791 793 798 801 802 802 804 806 807
764 762 759 758 757 758 760 758 758 761 760 757 756 751 746 743 736 733 733 729 725 723 721 718 713 712 714 717 718 717 713 713 713 706 702 701 696 688 686 686 687 687 687 690 689 694 708 715 713 721 733 735 733 730 723 718 715 712 712 712 713 717 719 723 727 730 739 748 746 752 772 781 777 777 779 781 784 788 791 794 795 797 800 801 803 806 807 808
764 761 758 758 758 759 759 756 757 760 759 758 755 747 743 741 733 727 726 722 718 717 716 715 711 710 713 716 719 717 712 710 711 708 705 703 698 690 687 687 687 684 684 685 685 691 705 711 710 715 722 724 723 718 710 710 716 718 714 711 713 715 717 723 730 732 737 748 757 761 766 775 779 780 781 782 784 789 793 795 796 798 800 801 803 806 808 808
766 763 759 759 759 761 761 758 757 758 755 755 754 745 740 738 732 726 722 718 715 713 713 713 711 712 714 715 718 718 714 710 709 708 707 703 698 693 690 689 688 684 683 683 683 690 704 711 710 712 713 712 712 709 703 704 712 714 711 711 712 714 719 723 726 731 733 741 760 768 763 768 778 778 777 780 782 788 793 794 796 798 800 802 804 806 808 809
764 763 761 759 758 759 759 756 754 754 752 752 750 744 740 738 734 729 723 717 714 713 714 715 714 713 714 714 717 719 716 714 712 710 708 705 701 698 693 689 687 685 684 683 682 687 701 710 709 711 715 714 712 710 705 704 710 710 708 708 708 712 719 719 720 727 724 725 748 765 762 764 773 774 775 777 779 785 791 794 796 799 801 803 805 807 809 810
764 764 762 760 758 755 754 751 749 750 750 749 746 742 739 738 733 728 722 719 718 715 715 718 716 714 713 713 717 719 717 716 715 711 709 708 707 705 701 696 692 689 688 688 686 685 696 709 708 708 718 721 719 718 711 706 713 719 719 717 714 714 716 715 719 725 722 723 740 757 762 765 769 771 775 778 780 785 791 794 797 800 802 804 807 809 810 811
766 765 762 760 759 756 753 750 748 748 747 744 742 738 735 733 729 724 720 720 722 719 717 719 718 716 716 715 717 718 716 713 713 711 709 709 710 708 707 706 703 699 696 695 693 687 694 709 709 706 720 729 725 723 719 713 717 726 729 729 725 722 719 719 724 729 733 741 749 755 764 772 773 773 777 781 783 786 791 796 799 800 802 804 807 809 810 812
765 764 761 760 757 753 753 750 747 747 745 741 738 735 733 730 727 725 721 718 720 720 718 718 719 719 718 718 719 717 713 708 708 708 707 709 710 708 707 707 706 706 704 703 703 696 694 705 707 707 723 733 728 727 723 716 717 723 731 740 740 734 729 728 731 733 737 748 758 763 768 772 774 776 781 784 786 788 792 795 798 801 803 804 807 809 811 812
763 760 758 758 755 749 750 750 747 746 743 739 737 735 734 732 728 727 725 720 718 719 718 718 721 721 721 721 719 713 710 708 707 707 707 707 706 705 705 705 705 707 708 706 707 704 698 701 705 710 725 735 733 729 721 713 717 728 741 752 752 744 738 735 736 737 736 742 753 758 760 765 770 774 780 786 788 789 791 793 795 799 802 804 806 808 811 813